Time,TemperatureF,DewpointF,PressureIn,WindDirection,WindDirectionDegrees,WindSpeedMPH,WindSpeedGustMPH,Humidity,HourlyPrecipIn,Conditions,Clouds,dailyrainin,SoftwareType,DateUTC
2013-02-15 00:00:00,59.8,55.3,29.97,North,0,0.0,0.0,85,0.02,,,0.29,WUHU216HW,2013-02-15 05:00:00,
2013-02-15 00:05:00,59.8,55.3,29.98,North,0,0.0,0.0,85,0.03,,,0.01,WUHU216HW,2013-02-15 05:05:00,
2013-02-15 00:10:00,59.8,55.6,29.98,North,0,0.0,0.0,86,0.03,,,0.01,WUHU216HW,2013-02-15 05:10:00,
2013-02-15 00:15:00,59.8,55.6,29.98,North,0,0.0,0.0,86,0.03,,,0.01,WUHU216HW,2013-02-15 05:15:00,
2013-02-15 00:20:00,59.8,55.6,29.98,North,0,0.0,0.0,86,0.02,,,0.01,WUHU216HW,2013-02-15 05:20:00,
2013-02-15 00:25:00,59.6,55.5,29.98,North,0,0.0,0.0,86,0.02,,,0.01,WUHU216HW,2013-02-15 05:25:00,
2013-02-15 00:30:00,59.4,54.9,29.98,North,0,0.0,0.0,85,0.02,,,0.01,WUHU216HW,2013-02-15 05:30:00,
2013-02-15 00:35:00,59.4,54.9,29.98,North,0,0.0,0.0,85,0.02,,,0.01,WUHU216HW,2013-02-15 05:35:00,
2013-02-15 00:40:00,59.2,54.7,29.98,North,0,0.0,0.0,85,0.02,,,0.01,WUHU216HW,2013-02-15 05:40:00,
2013-02-15 00:45:00,59.2,54.7,29.97,North,0,0.0,0.0,85,0.02,,,0.01,WUHU216HW,2013-02-15 05:45:00,
2013-02-15 00:50:00,59.0,54.5,29.97,North,0,0.0,0.0,85,0.01,,,0.01,WUHU216HW,2013-02-15 05:50:00,
2013-02-15 00:55:00,59.0,54.5,29.96,North,0,0.0,0.0,85,0.01,,,0.01,WUHU216HW,2013-02-15 05:55:00,
2013-02-15 01:00:00,59.0,54.5,29.98,North,0,0.0,0.0,85,0.01,,,0.01,WUHU216HW,2013-02-15 06:00:00,
2013-02-15 01:05:00,58.9,54.4,29.96,North,0,0.0,0.0,85,0.00,,,0.01,WUHU216HW,2013-02-15 06:05:00,
2013-02-15 01:10:00,58.9,54.4,29.98,North,0,0.0,0.0,85,0.00,,,0.01,WUHU216HW,2013-02-15 06:10:00,
2013-02-15 01:15:00,58.9,54.4,29.99,North,0,0.0,0.0,85,0.00,,,0.01,WUHU216HW,2013-02-15 06:15:00,
2013-02-15 01:20:00,58.7,54.2,29.98,North,0,0.0,0.0,85,0.00,,,0.01,WUHU216HW,2013-02-15 06:20:00,
2013-02-15 01:25:00,58.7,54.2,29.98,North,0,0.0,0.0,85,0.00,,,0.01,WUHU216HW,2013-02-15 06:25:00,
2013-02-15 01:30:00,58.5,54.0,29.97,North,0,0.0,0.0,85,0.00,,,0.01,WUHU216HW,2013-02-15 06:30:00,
2013-02-15 01:35:00,58.5,54.0,29.97,North,0,0.0,0.0,85,0.00,,,0.01,WUHU216HW,2013-02-15 06:35:00,
2013-02-15 01:40:00,58.3,53.8,29.99,North,0,0.0,0.0,85,0.00,,,0.01,WUHU216HW,2013-02-15 06:40:00,
2013-02-15 01:45:00,58.3,54.2,29.99,North,0,0.0,0.0,86,0.00,,,0.01,WUHU216HW,2013-02-15 06:45:00,
2013-02-15 01:50:00,58.3,54.2,29.98,North,0,0.0,0.0,86,0.00,,,0.01,WUHU216HW,2013-02-15 06:50:00,
2013-02-15 01:55:00,58.3,54.2,30.00,North,0,0.0,0.0,86,0.00,,,0.01,WUHU216HW,2013-02-15 06:55:00,
2013-02-15 02:00:00,58.1,54.0,30.01,North,0,0.0,0.0,86,0.00,,,0.01,WUHU216HW,2013-02-15 07:00:00,
2013-02-15 02:05:00,58.1,54.0,30.00,North,0,0.0,0.0,86,0.00,,,0.01,WUHU216HW,2013-02-15 07:05:00,
2013-02-15 02:10:00,58.1,54.0,30.00,North,0,0.0,0.0,86,0.00,,,0.01,WUHU216HW,2013-02-15 07:10:00,
2013-02-15 02:15:00,58.0,53.8,30.00,North,0,0.0,0.0,86,0.00,,,0.01,WUHU216HW,2013-02-15 07:15:00,
2013-02-15 02:20:00,58.0,53.8,30.01,North,0,0.0,0.0,86,0.00,,,0.01,WUHU216HW,2013-02-15 07:20:00,
2013-02-15 02:25:00,58.0,53.8,30.01,North,0,0.0,0.0,86,0.00,,,0.01,WUHU216HW,2013-02-15 07:25:00,
2013-02-15 02:30:00,57.8,53.7,30.01,North,0,0.0,0.0,86,0.00,,,0.01,WUHU216HW,2013-02-15 07:30:00,
2013-02-15 02:35:00,57.8,53.7,30.00,North,0,0.0,0.0,86,0.00,,,0.01,WUHU216HW,2013-02-15 07:35:00,
2013-02-15 02:40:00,57.6,53.5,30.01,North,0,0.0,0.0,86,0.00,,,0.01,WUHU216HW,2013-02-15 07:40:00,
2013-02-15 02:45:00,57.6,53.5,30.00,North,0,0.0,0.0,86,0.00,,,0.01,WUHU216HW,2013-02-15 07:45:00,
2013-02-15 02:50:00,57.6,53.5,29.98,North,0,0.0,0.0,86,0.01,,,0.02,WUHU216HW,2013-02-15 07:50:00,
2013-02-15 02:55:00,57.4,53.3,29.98,North,0,0.0,0.0,86,0.01,,,0.02,WUHU216HW,2013-02-15 07:55:00,
2013-02-15 03:00:00,57.4,52.9,29.98,North,0,0.0,0.0,85,0.01,,,0.02,WUHU216HW,2013-02-15 08:00:00,
2013-02-15 03:05:00,57.4,52.9,29.98,North,0,0.0,0.0,85,0.01,,,0.02,WUHU216HW,2013-02-15 08:05:00,
2013-02-15 03:10:00,57.2,52.7,29.98,North,0,0.0,0.0,85,0.01,,,0.02,WUHU216HW,2013-02-15 08:10:00,
2013-02-15 03:15:00,57.2,52.7,29.98,North,0,0.0,0.0,85,0.01,,,0.02,WUHU216HW,2013-02-15 08:15:00,
2013-02-15 03:20:00,57.2,52.7,29.97,North,0,0.0,0.0,85,0.01,,,0.02,WUHU216HW,2013-02-15 08:20:00,
2013-02-15 03:25:00,57.2,52.7,29.98,North,0,0.0,0.0,85,0.01,,,0.02,WUHU216HW,2013-02-15 08:25:00,
2013-02-15 03:30:00,57.2,52.7,29.98,North,0,0.0,0.0,85,0.01,,,0.02,WUHU216HW,2013-02-15 08:30:00,
2013-02-15 03:35:00,57.2,52.7,29.99,North,0,0.0,0.0,85,0.01,,,0.02,WUHU216HW,2013-02-15 08:35:00,
2013-02-15 03:40:00,57.2,52.7,29.98,North,0,0.0,0.0,85,0.01,,,0.02,WUHU216HW,2013-02-15 08:40:00,
2013-02-15 03:45:00,57.2,52.7,29.97,North,0,0.0,0.0,85,0.00,,,0.02,WUHU216HW,2013-02-15 08:45:00,
2013-02-15 03:50:00,57.2,52.7,29.97,North,0,0.0,0.0,85,0.00,,,0.02,WUHU216HW,2013-02-15 08:50:00,
2013-02-15 03:55:00,57.2,52.7,29.97,North,0,0.0,0.0,85,0.00,,,0.02,WUHU216HW,2013-02-15 08:55:00,
2013-02-15 04:00:00,57.2,52.7,29.97,North,0,0.0,0.0,85,0.00,,,0.02,WUHU216HW,2013-02-15 09:00:00,
2013-02-15 04:05:00,57.2,52.7,29.98,North,0,0.0,0.0,85,0.00,,,0.02,WUHU216HW,2013-02-15 09:05:00,
2013-02-15 04:10:00,57.1,52.6,29.98,North,0,0.0,0.0,85,0.00,,,0.02,WUHU216HW,2013-02-15 09:10:00,
2013-02-15 04:15:00,56.9,52.4,29.98,North,0,0.0,0.0,85,0.00,,,0.02,WUHU216HW,2013-02-15 09:15:00,
2013-02-15 04:20:00,56.9,52.4,29.98,North,0,0.0,0.0,85,0.00,,,0.02,WUHU216HW,2013-02-15 09:20:00,
2013-02-15 04:25:00,56.9,52.4,29.98,North,0,0.0,0.0,85,0.00,,,0.02,WUHU216HW,2013-02-15 09:25:00,
2013-02-15 04:30:00,56.9,52.4,29.99,North,0,0.0,0.0,85,0.00,,,0.02,WUHU216HW,2013-02-15 09:30:00,
2013-02-15 04:35:00,56.9,52.4,29.99,North,0,0.0,0.0,85,0.00,,,0.02,WUHU216HW,2013-02-15 09:35:00,
2013-02-15 04:40:00,56.9,52.4,29.99,North,0,0.0,0.0,85,0.00,,,0.02,WUHU216HW,2013-02-15 09:40:00,
2013-02-15 04:45:00,56.7,52.2,29.99,North,0,0.0,0.0,85,0.00,,,0.02,WUHU216HW,2013-02-15 09:45:00,
2013-02-15 04:50:00,56.5,52.0,30.00,North,0,0.0,0.0,85,0.00,,,0.02,WUHU216HW,2013-02-15 09:50:00,
2013-02-15 04:55:00,56.5,52.0,30.00,North,0,0.0,0.0,85,0.00,,,0.02,WUHU216HW,2013-02-15 09:55:00,
2013-02-15 05:00:00,56.5,52.0,30.00,North,0,0.0,0.0,85,0.00,,,0.02,WUHU216HW,2013-02-15 10:00:00,
2013-02-15 05:05:00,56.5,52.0,29.99,North,0,0.0,0.0,85,0.00,,,0.02,WUHU216HW,2013-02-15 10:05:00,
2013-02-15 05:10:00,56.5,52.0,29.99,North,0,0.0,0.0,85,0.00,,,0.02,WUHU216HW,2013-02-15 10:10:00,
2013-02-15 05:15:00,56.5,52.0,29.99,North,0,0.0,0.0,85,0.00,,,0.02,WUHU216HW,2013-02-15 10:15:00,
2013-02-15 05:20:00,56.5,52.0,30.00,North,0,0.0,0.0,85,0.00,,,0.02,WUHU216HW,2013-02-15 10:20:00,
2013-02-15 05:25:00,56.5,52.0,29.99,North,0,0.0,0.0,85,0.00,,,0.02,WUHU216HW,2013-02-15 10:25:00,
2013-02-15 05:30:00,56.3,51.8,29.99,North,0,0.0,0.0,85,0.00,,,0.02,WUHU216HW,2013-02-15 10:30:00,
2013-02-15 05:35:00,56.3,51.8,30.00,North,0,0.0,0.0,85,0.00,,,0.02,WUHU216HW,2013-02-15 10:35:00,
2013-02-15 05:40:00,56.3,51.8,30.00,North,0,0.0,0.0,85,0.00,,,0.02,WUHU216HW,2013-02-15 10:40:00,
2013-02-15 05:45:00,56.3,51.8,30.00,North,0,0.0,0.0,85,0.00,,,0.02,WUHU216HW,2013-02-15 10:45:00,
2013-02-15 05:50:00,56.3,51.8,30.00,North,0,0.0,0.0,85,0.00,,,0.02,WUHU216HW,2013-02-15 10:50:00,
2013-02-15 05:55:00,56.5,52.0,30.00,North,0,0.0,0.0,85,0.00,,,0.02,WUHU216HW,2013-02-15 10:55:00,
2013-02-15 06:00:00,56.5,52.0,30.00,North,0,0.0,0.0,85,0.00,,,0.02,WUHU216HW,2013-02-15 11:00:00,
2013-02-15 06:05:00,56.5,52.0,30.00,North,0,0.0,0.0,85,0.00,,,0.02,WUHU216HW,2013-02-15 11:05:00,
2013-02-15 06:10:00,56.5,52.0,30.00,North,0,0.0,0.0,85,0.00,,,0.02,WUHU216HW,2013-02-15 11:10:00,
2013-02-15 06:15:00,56.5,52.0,29.99,North,0,0.0,0.0,85,0.00,,,0.02,WUHU216HW,2013-02-15 11:15:00,
2013-02-15 06:20:00,56.3,51.8,29.99,North,0,0.0,0.0,85,0.00,,,0.02,WUHU216HW,2013-02-15 11:20:00,
2013-02-15 06:25:00,56.5,52.0,29.99,North,0,0.0,0.0,85,0.00,,,0.02,WUHU216HW,2013-02-15 11:25:00,
2013-02-15 06:30:00,56.5,52.0,30.00,North,0,0.0,0.0,85,0.00,,,0.02,WUHU216HW,2013-02-15 11:30:00,
2013-02-15 06:35:00,56.5,52.0,29.99,North,0,0.0,0.0,85,0.00,,,0.02,WUHU216HW,2013-02-15 11:35:00,
2013-02-15 06:40:00,56.3,51.8,29.99,North,0,0.0,0.0,85,0.00,,,0.02,WUHU216HW,2013-02-15 11:40:00,
2013-02-15 06:45:00,56.3,51.8,29.99,North,0,0.0,0.0,85,0.00,,,0.02,WUHU216HW,2013-02-15 11:45:00,
2013-02-15 06:50:00,56.3,51.8,30.01,North,0,0.0,0.0,85,0.00,,,0.02,WUHU216HW,2013-02-15 11:50:00,
2013-02-15 06:55:00,56.3,51.8,30.01,North,0,0.0,0.0,85,0.00,,,0.02,WUHU216HW,2013-02-15 11:55:00,
2013-02-15 07:00:00,56.3,51.8,30.01,North,0,0.0,0.0,85,0.00,,,0.02,WUHU216HW,2013-02-15 12:00:00,
2013-02-15 07:05:00,56.2,51.7,30.01,North,0,0.0,0.0,85,0.00,,,0.02,WUHU216HW,2013-02-15 12:05:00,
2013-02-15 07:10:00,56.2,51.7,30.01,North,0,0.0,0.0,85,0.00,,,0.02,WUHU216HW,2013-02-15 12:10:00,
2013-02-15 07:15:00,56.0,51.5,30.01,North,0,0.0,0.0,85,0.00,,,0.02,WUHU216HW,2013-02-15 12:15:00,
2013-02-15 07:20:00,56.0,51.5,30.02,North,0,0.0,0.0,85,0.00,,,0.02,WUHU216HW,2013-02-15 12:20:00,
2013-02-15 07:25:00,56.0,51.5,30.02,North,0,0.0,0.0,85,0.00,,,0.02,WUHU216HW,2013-02-15 12:25:00,
2013-02-15 07:30:00,56.0,51.9,30.02,North,0,0.0,0.0,86,0.00,,,0.02,WUHU216HW,2013-02-15 12:30:00,
2013-02-15 07:35:00,56.0,51.5,30.02,North,0,0.0,0.0,85,0.00,,,0.02,WUHU216HW,2013-02-15 12:35:00,
2013-02-15 07:40:00,56.0,51.5,30.02,North,0,0.0,0.0,85,0.00,,,0.02,WUHU216HW,2013-02-15 12:40:00,
2013-02-15 07:45:00,55.8,51.3,30.03,North,0,0.0,0.0,85,0.00,,,0.02,WUHU216HW,2013-02-15 12:45:00,
2013-02-15 07:50:00,55.8,51.3,30.03,North,0,0.0,0.0,85,0.00,,,0.02,WUHU216HW,2013-02-15 12:50:00,
2013-02-15 07:55:00,55.8,51.3,30.03,North,0,0.0,0.0,85,0.00,,,0.02,WUHU216HW,2013-02-15 12:55:00,
2013-02-15 08:00:00,55.8,51.3,30.03,North,0,0.0,0.0,85,0.00,,,0.02,WUHU216HW,2013-02-15 13:00:00,
2013-02-15 08:05:00,55.8,51.3,30.03,North,0,0.0,0.0,85,0.00,,,0.02,WUHU216HW,2013-02-15 13:05:00,
2013-02-15 08:10:00,55.8,51.3,30.04,North,0,0.0,0.0,85,0.00,,,0.02,WUHU216HW,2013-02-15 13:10:00,
2013-02-15 08:15:00,55.6,51.1,30.04,North,0,0.0,0.0,85,0.00,,,0.02,WUHU216HW,2013-02-15 13:15:00,
2013-02-15 08:20:00,55.6,51.1,30.04,North,0,0.0,0.0,85,0.00,,,0.02,WUHU216HW,2013-02-15 13:20:00,
2013-02-15 08:25:00,55.4,50.9,30.03,North,0,0.0,0.0,85,0.00,,,0.02,WUHU216HW,2013-02-15 13:25:00,
2013-02-15 08:30:00,55.4,50.9,30.03,North,0,0.0,0.0,85,0.00,,,0.02,WUHU216HW,2013-02-15 13:30:00,
2013-02-15 08:35:00,55.4,50.9,30.03,North,0,0.0,0.0,85,0.00,,,0.02,WUHU216HW,2013-02-15 13:35:00,
2013-02-15 08:40:00,55.4,50.9,30.03,North,0,0.0,0.0,85,0.00,,,0.02,WUHU216HW,2013-02-15 13:40:00,
2013-02-15 08:45:00,55.4,50.9,30.03,North,0,0.0,0.0,85,0.00,,,0.02,WUHU216HW,2013-02-15 13:45:00,
2013-02-15 08:50:00,55.4,50.9,30.04,North,0,0.0,0.0,85,0.00,,,0.02,WUHU216HW,2013-02-15 13:50:00,
2013-02-15 08:55:00,55.4,50.9,30.04,North,0,0.0,0.0,85,0.00,,,0.02,WUHU216HW,2013-02-15 13:55:00,
2013-02-15 09:00:00,55.4,50.9,30.05,North,0,0.0,0.0,85,0.00,,,0.02,WUHU216HW,2013-02-15 14:00:00,
2013-02-15 09:05:00,55.4,50.9,30.05,North,0,0.0,0.0,85,0.00,,,0.02,WUHU216HW,2013-02-15 14:05:00,
2013-02-15 09:10:00,55.4,50.9,30.06,North,0,0.0,0.0,85,0.00,,,0.02,WUHU216HW,2013-02-15 14:10:00,
2013-02-15 09:15:00,55.4,50.9,30.06,North,0,0.0,0.0,85,0.00,,,0.02,WUHU216HW,2013-02-15 14:15:00,
2013-02-15 09:20:00,55.4,50.9,30.05,North,0,0.0,0.0,85,0.00,,,0.02,WUHU216HW,2013-02-15 14:20:00,
2013-02-15 09:25:00,55.4,50.9,30.05,North,0,0.0,0.0,85,0.00,,,0.02,WUHU216HW,2013-02-15 14:25:00,
2013-02-15 09:30:00,55.6,51.5,30.05,North,0,0.0,0.0,86,0.00,,,0.02,WUHU216HW,2013-02-15 14:30:00,
2013-02-15 09:35:00,55.6,51.5,30.04,North,0,0.0,0.0,86,0.00,,,0.02,WUHU216HW,2013-02-15 14:35:00,
2013-02-15 09:40:00,55.8,51.7,30.05,North,0,0.0,0.0,86,0.00,,,0.02,WUHU216HW,2013-02-15 14:40:00,
2013-02-15 09:45:00,55.8,51.7,30.04,North,0,0.0,0.0,86,0.00,,,0.02,WUHU216HW,2013-02-15 14:45:00,
2013-02-15 09:50:00,56.0,51.5,30.05,North,0,0.0,0.0,85,0.00,,,0.02,WUHU216HW,2013-02-15 14:50:00,
2013-02-15 09:55:00,56.0,51.5,30.05,North,0,0.0,0.0,85,0.00,,,0.02,WUHU216HW,2013-02-15 14:55:00,
2013-02-15 10:00:00,56.0,51.9,30.05,North,0,0.0,0.0,86,0.00,,,0.02,WUHU216HW,2013-02-15 15:00:00,
2013-02-15 10:05:00,56.2,51.7,30.05,North,0,0.0,0.0,85,0.00,,,0.02,WUHU216HW,2013-02-15 15:05:00,
2013-02-15 10:10:00,56.2,51.7,30.06,North,0,0.0,0.0,85,0.00,,,0.02,WUHU216HW,2013-02-15 15:10:00,
2013-02-15 10:15:00,56.2,51.7,30.06,North,0,0.0,0.0,85,0.00,,,0.02,WUHU216HW,2013-02-15 15:15:00,
2013-02-15 10:20:00,56.3,51.8,30.06,North,0,0.0,0.0,85,0.00,,,0.02,WUHU216HW,2013-02-15 15:20:00,
2013-02-15 10:25:00,56.3,51.8,30.05,North,0,0.0,0.0,85,0.00,,,0.02,WUHU216HW,2013-02-15 15:25:00,
2013-02-15 10:30:00,56.5,52.0,30.05,North,0,0.0,0.0,85,0.00,,,0.02,WUHU216HW,2013-02-15 15:30:00,
2013-02-15 10:35:00,56.5,52.0,30.04,North,0,0.0,0.0,85,0.00,,,0.02,WUHU216HW,2013-02-15 15:35:00,
2013-02-15 10:40:00,56.5,51.7,30.05,North,0,0.0,0.0,84,0.00,,,0.02,WUHU216HW,2013-02-15 15:40:00,
2013-02-15 10:45:00,56.5,51.7,30.03,North,0,0.0,0.0,84,0.00,,,0.02,WUHU216HW,2013-02-15 15:45:00,
2013-02-15 10:46:00,56.5,51.7,30.04,North,0,0.0,0.0,84,0.00,,,0.02,WUHU216HW,2013-02-15 15:46:00,
2013-02-15 10:50:00,56.5,51.7,30.04,North,0,0.0,0.0,84,0.00,,,0.02,WUHU216HW,2013-02-15 15:50:00,
2013-02-15 10:55:00,56.5,51.7,30.04,North,0,0.0,0.0,84,0.00,,,0.02,WUHU216HW,2013-02-15 15:55:00,
2013-02-15 11:05:00,57.1,52.2,30.05,North,0,0.0,0.0,84,0.00,,,0.02,WUHU216HW,2013-02-15 16:05:00,
2013-02-15 11:10:00,57.4,52.9,30.05,North,0,0.0,0.0,85,0.00,,,0.02,WUHU216HW,2013-02-15 16:10:00,
2013-02-15 11:15:00,58.0,53.5,30.04,North,0,0.0,0.0,85,0.00,,,0.02,WUHU216HW,2013-02-15 16:15:00,
2013-02-15 11:20:00,58.1,53.3,30.05,North,0,0.0,0.0,84,0.00,,,0.02,WUHU216HW,2013-02-15 16:20:00,
2013-02-15 11:25:00,58.9,54.0,30.05,North,0,0.0,0.0,84,0.00,,,0.02,WUHU216HW,2013-02-15 16:25:00,
2013-02-15 11:30:00,59.6,54.7,30.05,North,0,0.0,0.0,84,0.00,,,0.02,WUHU216HW,2013-02-15 16:30:00,
2013-02-15 11:35:00,60.5,55.4,30.04,North,0,0.0,0.0,83,0.00,,,0.02,WUHU216HW,2013-02-15 16:35:00,
2013-02-15 11:40:00,61.2,55.7,30.04,North,0,0.0,0.0,82,0.00,,,0.02,WUHU216HW,2013-02-15 16:40:00,
2013-02-15 11:45:00,62.1,56.2,30.05,North,0,0.0,0.0,81,0.00,,,0.02,WUHU216HW,2013-02-15 16:45:00,
2013-02-15 11:50:00,62.6,56.3,30.04,North,0,0.0,0.0,80,0.00,,,0.02,WUHU216HW,2013-02-15 16:50:00,
2013-02-15 11:55:00,62.6,56.0,30.04,North,0,0.0,0.0,79,0.00,,,0.02,WUHU216HW,2013-02-15 16:55:00,
2013-02-15 12:00:00,62.6,56.0,30.03,North,0,0.0,0.0,79,0.00,,,0.02,WUHU216HW,2013-02-15 17:00:00,
2013-02-15 12:05:00,62.5,55.4,30.03,North,0,0.0,0.0,78,0.00,,,0.02,WUHU216HW,2013-02-15 17:05:00,
2013-02-15 12:10:00,62.6,55.6,30.03,North,0,0.0,0.0,78,0.00,,,0.02,WUHU216HW,2013-02-15 17:10:00,
2013-02-15 12:15:00,63.0,55.6,30.03,North,0,0.0,0.0,77,0.00,,,0.02,WUHU216HW,2013-02-15 17:15:00,
2013-02-15 12:20:00,63.2,55.8,30.03,North,0,0.0,0.0,77,0.00,,,0.02,WUHU216HW,2013-02-15 17:20:00,
2013-02-15 12:25:00,63.4,56.0,30.02,North,0,0.0,0.0,77,0.00,,,0.02,WUHU216HW,2013-02-15 17:25:00,
2013-02-15 12:30:00,63.7,56.3,30.01,North,0,0.0,0.0,77,0.00,,,0.02,WUHU216HW,2013-02-15 17:30:00,
2013-02-15 12:35:00,63.7,56.3,30.02,North,0,0.0,0.0,77,0.00,,,0.02,WUHU216HW,2013-02-15 17:35:00,
2013-02-15 12:40:00,63.7,56.3,30.01,North,0,0.0,0.0,77,0.00,,,0.02,WUHU216HW,2013-02-15 17:40:00,
2013-02-15 12:45:00,63.7,56.3,30.02,North,0,0.0,0.0,77,0.00,,,0.02,WUHU216HW,2013-02-15 17:45:00,
2013-02-15 12:50:00,63.7,56.3,30.02,North,0,0.0,0.0,77,0.00,,,0.02,WUHU216HW,2013-02-15 17:50:00,
2013-02-15 12:55:00,63.7,56.3,30.02,North,0,0.0,0.0,77,0.00,,,0.02,WUHU216HW,2013-02-15 17:55:00,
2013-02-15 13:00:00,63.9,56.5,30.01,North,0,0.0,0.0,77,0.00,,,0.02,WUHU216HW,2013-02-15 18:00:00,
2013-02-15 13:05:00,63.9,56.5,30.00,North,0,0.0,0.0,77,0.00,,,0.02,WUHU216HW,2013-02-15 18:05:00,
2013-02-15 13:10:00,63.9,56.5,29.99,North,0,0.0,0.0,77,0.00,,,0.02,WUHU216HW,2013-02-15 18:10:00,
2013-02-15 13:15:00,63.9,56.5,29.99,North,0,0.0,0.0,77,0.00,,,0.02,WUHU216HW,2013-02-15 18:15:00,
2013-02-15 13:20:00,64.1,56.7,29.99,North,0,0.0,0.0,77,0.00,,,0.02,WUHU216HW,2013-02-15 18:20:00,
2013-02-15 13:25:00,64.3,56.9,29.99,North,0,0.0,0.0,77,0.00,,,0.02,WUHU216HW,2013-02-15 18:25:00,
2013-02-15 13:30:00,64.4,57.1,29.99,North,0,0.0,0.0,77,0.00,,,0.02,WUHU216HW,2013-02-15 18:30:00,
2013-02-15 13:35:00,64.6,57.3,29.99,North,0,0.0,0.0,77,0.00,,,0.02,WUHU216HW,2013-02-15 18:35:00,
2013-02-15 13:40:00,64.6,57.3,29.98,North,0,0.0,0.0,77,0.00,,,0.02,WUHU216HW,2013-02-15 18:40:00,
2013-02-15 13:45:00,64.8,57.4,29.98,North,0,0.0,0.0,77,0.00,,,0.02,WUHU216HW,2013-02-15 18:45:00,
2013-02-15 13:50:00,65.0,57.6,29.98,North,0,0.0,0.0,77,0.00,,,0.02,WUHU216HW,2013-02-15 18:50:00,
2013-02-15 13:55:00,65.0,57.3,29.98,North,0,0.0,0.0,76,0.00,,,0.02,WUHU216HW,2013-02-15 18:55:00,
2013-02-15 14:00:00,65.2,57.4,29.97,North,0,0.0,0.0,76,0.00,,,0.02,WUHU216HW,2013-02-15 19:00:00,
2013-02-15 14:05:00,65.2,57.4,29.97,North,0,0.0,0.0,76,0.00,,,0.02,WUHU216HW,2013-02-15 19:05:00,
2013-02-15 14:10:00,65.3,57.6,29.97,North,0,0.0,0.0,76,0.00,,,0.02,WUHU216HW,2013-02-15 19:10:00,
2013-02-15 14:15:00,65.5,57.8,29.96,North,0,0.0,0.0,76,0.00,,,0.02,WUHU216HW,2013-02-15 19:15:00,
2013-02-15 14:20:00,65.5,57.8,29.96,North,0,0.0,0.0,76,0.00,,,0.02,WUHU216HW,2013-02-15 19:20:00,
2013-02-15 14:25:00,65.5,57.8,29.96,North,0,0.0,0.0,76,0.00,,,0.02,WUHU216HW,2013-02-15 19:25:00,
2013-02-15 14:30:00,65.5,57.3,29.96,North,0,0.0,0.0,75,0.00,,,0.02,WUHU216HW,2013-02-15 19:30:00,
2013-02-15 14:35:00,65.7,57.5,29.96,North,0,0.0,0.0,75,0.00,,,0.02,WUHU216HW,2013-02-15 19:35:00,
2013-02-15 14:40:00,65.7,57.5,29.95,North,0,0.0,0.0,75,0.00,,,0.02,WUHU216HW,2013-02-15 19:40:00,
2013-02-15 14:45:00,65.9,57.7,29.95,North,0,0.0,0.0,75,0.00,,,0.02,WUHU216HW,2013-02-15 19:45:00,
2013-02-15 14:50:00,65.9,57.7,29.95,North,0,0.0,0.0,75,0.00,,,0.02,WUHU216HW,2013-02-15 19:50:00,
2013-02-15 14:55:00,65.9,57.3,29.95,North,0,0.0,0.0,74,0.00,,,0.02,WUHU216HW,2013-02-15 19:55:00,
2013-02-15 15:00:00,65.9,57.3,29.95,North,0,0.0,0.0,74,0.00,,,0.02,WUHU216HW,2013-02-15 20:00:00,
2013-02-15 15:05:00,66.1,57.9,29.95,North,0,0.0,0.0,75,0.00,,,0.02,WUHU216HW,2013-02-15 20:05:00,
2013-02-15 15:10:00,66.2,58.1,29.95,North,0,0.0,0.0,75,0.00,,,0.02,WUHU216HW,2013-02-15 20:10:00,
2013-02-15 15:15:00,66.2,57.7,29.94,North,0,0.0,0.0,74,0.00,,,0.02,WUHU216HW,2013-02-15 20:15:00,
2013-02-15 15:20:00,66.2,57.7,29.94,North,0,0.0,0.0,74,0.00,,,0.02,WUHU216HW,2013-02-15 20:20:00,
2013-02-15 15:25:00,66.2,57.7,29.94,North,0,0.0,0.0,74,0.00,,,0.02,WUHU216HW,2013-02-15 20:25:00,
2013-02-15 15:30:00,66.2,57.7,29.95,North,0,0.0,0.0,74,0.00,,,0.02,WUHU216HW,2013-02-15 20:30:00,
2013-02-15 15:35:00,66.4,57.9,29.94,North,0,0.0,0.0,74,0.00,,,0.02,WUHU216HW,2013-02-15 20:35:00,
2013-02-15 15:40:00,66.4,57.9,29.94,North,0,0.0,0.0,74,0.00,,,0.02,WUHU216HW,2013-02-15 20:40:00,
2013-02-15 15:45:00,66.4,57.5,29.94,North,0,0.0,0.0,73,0.00,,,0.02,WUHU216HW,2013-02-15 20:45:00,
2013-02-15 15:50:00,66.6,57.7,29.94,North,0,0.0,0.0,73,0.00,,,0.02,WUHU216HW,2013-02-15 20:50:00,
2013-02-15 15:55:00,66.6,57.7,29.94,North,0,0.0,0.0,73,0.00,,,0.02,WUHU216HW,2013-02-15 20:55:00,
2013-02-15 16:00:00,66.6,57.2,29.95,North,0,0.0,0.0,72,0.00,,,0.02,WUHU216HW,2013-02-15 21:00:00,
2013-02-15 16:05:00,66.6,57.2,29.94,North,0,0.0,0.0,72,0.00,,,0.02,WUHU216HW,2013-02-15 21:05:00,
2013-02-15 16:10:00,66.6,57.2,29.94,North,0,0.0,0.0,72,0.00,,,0.02,WUHU216HW,2013-02-15 21:10:00,
2013-02-15 16:15:00,66.6,57.2,29.94,North,0,0.0,0.0,72,0.00,,,0.02,WUHU216HW,2013-02-15 21:15:00,
2013-02-15 16:20:00,66.8,57.4,29.94,North,0,0.0,0.0,72,0.00,,,0.02,WUHU216HW,2013-02-15 21:20:00,
2013-02-15 16:25:00,66.8,57.4,29.94,North,0,0.0,0.0,72,0.00,,,0.02,WUHU216HW,2013-02-15 21:25:00,
2013-02-15 16:30:00,66.8,57.4,29.94,North,0,0.0,0.0,72,0.00,,,0.02,WUHU216HW,2013-02-15 21:30:00,
2013-02-15 16:35:00,66.8,57.4,29.94,North,0,0.0,0.0,72,0.00,,,0.02,WUHU216HW,2013-02-15 21:35:00,
2013-02-15 16:40:00,67.0,57.6,29.94,North,0,0.0,0.0,72,0.00,,,0.02,WUHU216HW,2013-02-15 21:40:00,
2013-02-15 16:45:00,67.0,57.6,29.94,North,0,0.0,0.0,72,0.00,,,0.02,WUHU216HW,2013-02-15 21:45:00,
2013-02-15 16:50:00,66.8,57.4,29.94,North,0,0.0,0.0,72,0.00,,,0.02,WUHU216HW,2013-02-15 21:50:00,
2013-02-15 16:55:00,66.8,57.1,29.94,North,0,0.0,0.0,71,0.00,,,0.02,WUHU216HW,2013-02-15 21:55:00,
2013-02-15 17:00:00,66.8,56.7,29.94,North,0,0.0,0.0,70,0.00,,,0.02,WUHU216HW,2013-02-15 22:00:00,
2013-02-15 17:05:00,66.8,56.7,29.94,North,0,0.0,0.0,70,0.00,,,0.02,WUHU216HW,2013-02-15 22:05:00,
2013-02-15 17:10:00,66.6,56.5,29.94,North,0,0.0,0.0,70,0.00,,,0.02,WUHU216HW,2013-02-15 22:10:00,
2013-02-15 17:15:00,66.6,56.5,29.94,North,0,0.0,0.0,70,0.00,,,0.02,WUHU216HW,2013-02-15 22:15:00,
2013-02-15 17:20:00,66.6,56.5,29.94,North,0,0.0,0.0,70,0.00,,,0.02,WUHU216HW,2013-02-15 22:20:00,
2013-02-15 17:25:00,66.6,56.5,29.94,North,0,0.0,0.0,70,0.00,,,0.02,WUHU216HW,2013-02-15 22:25:00,
2013-02-15 17:30:00,66.6,56.5,29.93,North,0,0.0,0.0,70,0.00,,,0.02,WUHU216HW,2013-02-15 22:30:00,
2013-02-15 17:35:00,66.6,56.5,29.93,North,0,0.0,0.0,70,0.00,,,0.02,WUHU216HW,2013-02-15 22:35:00,
2013-02-15 17:40:00,66.6,56.5,29.94,North,0,0.0,0.0,70,0.00,,,0.02,WUHU216HW,2013-02-15 22:40:00,
2013-02-15 17:45:00,66.6,56.5,29.93,North,0,0.0,0.0,70,0.00,,,0.02,WUHU216HW,2013-02-15 22:45:00,
2013-02-15 17:50:00,66.6,56.5,29.93,North,0,0.0,0.0,70,0.00,,,0.02,WUHU216HW,2013-02-15 22:50:00,
2013-02-15 17:55:00,66.4,56.3,29.93,North,0,0.0,0.0,70,0.00,,,0.02,WUHU216HW,2013-02-15 22:55:00,
2013-02-15 18:00:00,66.2,56.2,29.93,North,0,0.0,0.0,70,0.00,,,0.02,WUHU216HW,2013-02-15 23:00:00,
2013-02-15 18:05:00,66.2,56.2,29.93,North,0,0.0,0.0,70,0.00,,,0.02,WUHU216HW,2013-02-15 23:05:00,
2013-02-15 18:10:00,66.1,56.0,29.93,North,0,0.0,0.0,70,0.00,,,0.02,WUHU216HW,2013-02-15 23:10:00,
2013-02-15 18:15:00,65.9,55.8,29.93,North,0,0.0,0.0,70,0.00,,,0.02,WUHU216HW,2013-02-15 23:15:00,
2013-02-15 18:20:00,65.9,55.8,29.93,North,0,0.0,0.0,70,0.00,,,0.02,WUHU216HW,2013-02-15 23:20:00,
2013-02-15 18:25:00,65.7,55.7,29.93,North,0,0.0,0.0,70,0.00,,,0.02,WUHU216HW,2013-02-15 23:25:00,
2013-02-15 18:30:00,65.5,55.5,29.93,North,0,0.0,0.0,70,0.00,,,0.02,WUHU216HW,2013-02-15 23:30:00,
2013-02-15 18:35:00,65.3,55.4,29.93,North,0,0.0,0.0,70,0.00,,,0.02,WUHU216HW,2013-02-15 23:35:00,
2013-02-15 18:40:00,65.2,55.2,29.93,North,0,0.0,0.0,70,0.00,,,0.02,WUHU216HW,2013-02-15 23:40:00,
2013-02-15 18:45:00,65.2,55.2,29.93,North,0,0.0,0.0,70,0.00,,,0.02,WUHU216HW,2013-02-15 23:45:00,
2013-02-15 18:50:00,65.0,55.4,29.93,North,0,0.0,0.0,71,0.00,,,0.02,WUHU216HW,2013-02-15 23:50:00,
2013-02-15 18:55:00,64.8,55.3,29.93,North,0,0.0,0.0,71,0.00,,,0.02,WUHU216HW,2013-02-15 23:55:00,
2013-02-15 19:00:00,64.8,55.3,29.93,North,0,0.0,0.0,71,0.00,,,0.02,WUHU216HW,2013-02-16 00:00:00,
2013-02-15 19:05:00,64.4,54.9,29.93,North,0,0.0,0.0,71,0.00,,,0.02,WUHU216HW,2013-02-16 00:05:00,
2013-02-15 19:10:00,64.4,54.9,29.94,North,0,0.0,0.0,71,0.00,,,0.02,WUHU216HW,2013-02-16 00:10:00,
2013-02-15 19:15:00,64.3,54.7,29.94,North,0,0.0,0.0,71,0.00,,,0.02,WUHU216HW,2013-02-16 00:15:00,
2013-02-15 19:20:00,64.1,54.5,29.94,North,0,0.0,0.0,71,0.00,,,0.02,WUHU216HW,2013-02-16 00:20:00,
2013-02-15 19:25:00,63.9,54.7,29.94,North,0,0.0,0.0,72,0.00,,,0.02,WUHU216HW,2013-02-16 00:25:00,
2013-02-15 19:30:00,63.7,54.5,29.94,North,0,0.0,0.0,72,0.00,,,0.02,WUHU216HW,2013-02-16 00:30:00,
2013-02-15 19:35:00,63.5,54.4,29.94,North,0,0.0,0.0,72,0.00,,,0.02,WUHU216HW,2013-02-16 00:35:00,
2013-02-15 19:40:00,63.4,54.2,29.94,North,0,0.0,0.0,72,0.00,,,0.02,WUHU216HW,2013-02-16 00:40:00,
2013-02-15 19:45:00,63.4,54.5,29.94,North,0,0.0,0.0,73,0.00,,,0.02,WUHU216HW,2013-02-16 00:45:00,
2013-02-15 19:50:00,63.2,54.4,29.94,North,0,0.0,0.0,73,0.00,,,0.02,WUHU216HW,2013-02-16 00:50:00,
2013-02-15 19:55:00,63.0,54.2,29.94,North,0,0.0,0.0,73,0.00,,,0.02,WUHU216HW,2013-02-16 00:55:00,
2013-02-15 20:00:00,62.8,54.0,29.94,North,0,0.0,0.0,73,0.00,,,0.02,WUHU216HW,2013-02-16 01:00:00,
2013-02-15 20:05:00,62.6,53.5,29.95,North,0,0.0,0.0,72,0.00,,,0.02,WUHU216HW,2013-02-16 01:05:00,
2013-02-15 20:10:00,62.6,53.5,29.95,North,0,0.0,0.0,72,0.00,,,0.02,WUHU216HW,2013-02-16 01:10:00,
2013-02-15 20:15:00,62.5,53.6,29.95,North,0,0.0,0.0,73,0.00,,,0.02,WUHU216HW,2013-02-16 01:15:00,
2013-02-15 20:20:00,62.3,53.5,29.95,North,0,0.0,0.0,73,0.00,,,0.02,WUHU216HW,2013-02-16 01:20:00,
2013-02-15 20:25:00,62.1,53.4,29.95,North,0,0.0,0.0,73,0.00,,,0.02,WUHU216HW,2013-02-16 01:25:00,
2013-02-15 20:30:00,62.1,53.4,29.95,North,0,0.0,0.0,73,0.00,,,0.02,WUHU216HW,2013-02-16 01:30:00,
2013-02-15 20:35:00,61.9,53.2,29.95,North,0,0.0,0.0,73,0.00,,,0.02,WUHU216HW,2013-02-16 01:35:00,
2013-02-15 20:40:00,61.9,53.2,29.95,North,0,0.0,0.0,73,0.00,,,0.02,WUHU216HW,2013-02-16 01:40:00,
2013-02-15 20:45:00,61.7,53.0,29.95,North,0,0.0,0.0,73,0.00,,,0.02,WUHU216HW,2013-02-16 01:45:00,
2013-02-15 20:50:00,61.6,53.2,29.95,North,0,0.0,0.0,74,0.00,,,0.02,WUHU216HW,2013-02-16 01:50:00,
2013-02-15 20:55:00,61.4,53.0,29.95,North,0,0.0,0.0,74,0.00,,,0.02,WUHU216HW,2013-02-16 01:55:00,
2013-02-15 21:00:00,61.4,53.0,29.96,North,0,0.0,0.0,74,0.00,,,0.02,WUHU216HW,2013-02-16 02:00:00,
2013-02-15 21:05:00,61.2,52.9,29.96,North,0,0.0,0.0,74,0.00,,,0.02,WUHU216HW,2013-02-16 02:05:00,
2013-02-15 21:10:00,61.2,52.9,29.96,North,0,0.0,0.0,74,0.00,,,0.02,WUHU216HW,2013-02-16 02:10:00,
2013-02-15 21:15:00,61.2,52.9,29.95,North,0,0.0,0.0,74,0.00,,,0.02,WUHU216HW,2013-02-16 02:15:00,
2013-02-15 21:20:00,60.8,52.6,29.96,North,0,0.0,0.0,74,0.00,,,0.02,WUHU216HW,2013-02-16 02:20:00,
2013-02-15 21:25:00,60.8,52.9,29.96,North,0,0.0,0.0,75,0.00,,,0.02,WUHU216HW,2013-02-16 02:25:00,
2013-02-15 21:30:00,60.7,52.7,29.96,North,0,0.0,0.0,75,0.00,,,0.02,WUHU216HW,2013-02-16 02:30:00,
2013-02-15 21:35:00,60.5,52.6,29.96,North,0,0.0,0.0,75,0.00,,,0.02,WUHU216HW,2013-02-16 02:35:00,
2013-02-15 21:40:00,60.3,52.4,29.96,North,0,0.0,0.0,75,0.00,,,0.02,WUHU216HW,2013-02-16 02:40:00,
2013-02-15 21:45:00,60.1,52.2,29.96,North,0,0.0,0.0,75,0.00,,,0.02,WUHU216HW,2013-02-16 02:45:00,
2013-02-15 21:50:00,60.1,52.6,29.96,North,0,0.0,0.0,76,0.00,,,0.02,WUHU216HW,2013-02-16 02:50:00,
2013-02-15 21:55:00,59.9,52.4,29.96,North,0,0.0,0.0,76,0.00,,,0.02,WUHU216HW,2013-02-16 02:55:00,
2013-02-15 22:00:00,59.9,52.4,29.96,North,0,0.0,0.0,76,0.00,,,0.02,WUHU216HW,2013-02-16 03:00:00,
2013-02-15 22:05:00,59.9,52.4,29.96,North,0,0.0,0.0,76,0.00,,,0.02,WUHU216HW,2013-02-16 03:05:00,
2013-02-15 22:10:00,59.8,52.2,29.96,North,0,0.0,0.0,76,0.00,,,0.02,WUHU216HW,2013-02-16 03:10:00,
2013-02-15 22:15:00,59.8,52.2,29.96,North,0,0.0,0.0,76,0.00,,,0.02,WUHU216HW,2013-02-16 03:15:00,
2013-02-15 22:20:00,59.8,52.2,29.96,North,0,0.0,0.0,76,0.00,,,0.02,WUHU216HW,2013-02-16 03:20:00,
2013-02-15 22:25:00,59.6,52.0,29.96,North,0,0.0,0.0,76,0.00,,,0.02,WUHU216HW,2013-02-16 03:25:00,
2013-02-15 22:30:00,59.6,52.4,29.96,North,0,0.0,0.0,77,0.00,,,0.02,WUHU216HW,2013-02-16 03:30:00,
2013-02-15 22:35:00,59.6,52.4,29.97,North,0,0.0,0.0,77,0.00,,,0.02,WUHU216HW,2013-02-16 03:35:00,
2013-02-15 22:40:00,59.6,52.4,29.97,North,0,0.0,0.0,77,0.00,,,0.02,WUHU216HW,2013-02-16 03:40:00,
2013-02-15 22:45:00,59.4,52.2,29.97,North,0,0.0,0.0,77,0.00,,,0.02,WUHU216HW,2013-02-16 03:45:00,
2013-02-15 22:50:00,59.4,52.2,29.96,North,0,0.0,0.0,77,0.00,,,0.02,WUHU216HW,2013-02-16 03:50:00,
2013-02-15 22:55:00,59.4,52.2,29.96,North,0,0.0,0.0,77,0.00,,,0.02,WUHU216HW,2013-02-16 03:55:00,
2013-02-15 23:00:00,59.2,52.0,29.96,North,0,0.0,0.0,77,0.00,,,0.02,WUHU216HW,2013-02-16 04:00:00,
2013-02-15 23:05:00,59.2,52.4,29.96,North,0,0.0,0.0,78,0.00,,,0.02,WUHU216HW,2013-02-16 04:05:00,
2013-02-15 23:10:00,59.0,52.2,29.96,North,0,0.0,0.0,78,0.00,,,0.02,WUHU216HW,2013-02-16 04:10:00,
2013-02-15 23:15:00,59.0,52.2,29.96,North,0,0.0,0.0,78,0.00,,,0.02,WUHU216HW,2013-02-16 04:15:00,
2013-02-15 23:20:00,59.0,52.2,29.95,North,0,0.0,0.0,78,0.00,,,0.02,WUHU216HW,2013-02-16 04:20:00,
2013-02-15 23:25:00,58.9,52.0,29.96,North,0,0.0,0.0,78,0.00,,,0.02,WUHU216HW,2013-02-16 04:25:00,
2013-02-15 23:30:00,58.7,51.8,29.96,North,0,0.0,0.0,78,0.00,,,0.02,WUHU216HW,2013-02-16 04:30:00,
2013-02-15 23:35:00,58.7,51.8,29.96,North,0,0.0,0.0,78,0.00,,,0.02,WUHU216HW,2013-02-16 04:35:00,
2013-02-15 23:40:00,58.5,51.7,29.96,North,0,0.0,0.0,78,0.00,,,0.02,WUHU216HW,2013-02-16 04:40:00,
2013-02-15 23:45:00,58.3,51.8,29.95,North,0,0.0,0.0,79,0.00,,,0.02,WUHU216HW,2013-02-16 04:45:00,
2013-02-15 23:50:00,58.3,51.8,29.95,North,0,0.0,0.0,79,0.00,,,0.02,WUHU216HW,2013-02-16 04:50:00,
2013-02-15 23:55:00,58.3,51.8,29.95,North,0,0.0,0.0,79,0.00,,,0.02,WUHU216HW,2013-02-16 04:55:00,